This is the latest recevied weather packets stored in our database for station/object F5SHG-3. If no packets are shown the sender has not sent any weather packets the latest 1 day(s).
| Time | Temp. | Humidity | Pressure | Rain* | Wind** | Luminosity | Snow |
|---|---|---|---|---|---|---|---|
| 1777790108 | 12.22° C | 66% | 1015.5 hPa | - | - | - | - |
| 1777789208 | 11.67° C | 67% | 1015.3 hPa | - | - | - | - |
| 1777788308 | 11.67° C | 68% | 1015.1 hPa | - | - | - | - |
| 1777787408 | 11.67° C | 68% | 1015.1 hPa | - | - | - | - |
| 1777786508 | 11.67° C | 68% | 1015 hPa | - | - | - | - |
| 1777785608 | 11.67° C | 69% | 1014.9 hPa | - | - | - | - |
| 1777784708 | 11.67° C | 69% | 1014.8 hPa | - | - | - | - |
| 1777783807 | 11.67° C | 69% | 1014.8 hPa | - | - | - | - |
| 1777782907 | 11.67° C | 68% | 1014.8 hPa | - | - | - | - |
| 1777782006 | 12.22° C | 67% | 1014.9 hPa | - | - | - | - |
| 1777781106 | 12.22° C | 65% | 1015.1 hPa | - | - | - | - |
| 1777780210 | 12.22° C | 64% | 1015.2 hPa | - | - | - | - |
| 1777779310 | 12.22° C | 64% | 1015.2 hPa | - | - | - | - |
| 1777778410 | 12.22° C | 64% | 1015.4 hPa | - | - | - | - |
| 1777777510 | 12.22° C | 63% | 1015.4 hPa | - | - | - | - |
| 1777776609 | 12.22° C | 63% | 1015.3 hPa | - | - | - | - |
| 1777775709 | 12.22° C | 60% | 1015.4 hPa | - | - | - | - |
| 1777774809 | 12.78° C | 55% | 1015.4 hPa | - | - | - | - |
| 1777773909 | 13.33° C | 53% | 1015.4 hPa | - | - | - | - |
| 1777773009 | 13.33° C | 52% | 1015.4 hPa | - | - | - | - |
| 1777772109 | 13.33° C | 52% | 1015.4 hPa | - | - | - | - |
| 1777771208 | 13.33° C | 52% | 1015.5 hPa | - | - | - | - |
| 1777770308 | 13.33° C | 52% | 1015.6 hPa | - | - | - | - |
| 1777769408 | 13.33° C | 52% | 1015.8 hPa | - | - | - | - |
| 1777768508 | 13.33° C | 52% | 1015.9 hPa | - | - | - | - |
* Rain since midnight (hover to see other rain measurements)
** Current wind speed in m/s (hover to see current wind gust speed)